Weather History for Dublin, Ireland

Change the Weather History Date:

Saturday, August 30, 2014

  Actual Average Record
Temperature  
Mean Temperature 58 °F -  
Max Temperature 64 °F 62 °F 73 °F (2005)
Min Temperature 51 °F 49 °F 37 °F (2010)
Degree Days  
Heating Degree Days 6    
Growing Degree Days 8 (Base 50)    
Moisture  
Dew Point 53 °F    
Average Humidity 84    
Maximum Humidity 99    
Minimum Humidity 56    
Precipitation  
Precipitation 0.00 in 0.09 in - ()
Sea Level Pressure  
Sea Level Pressure 29.95 in    
Wind  
Wind Speed 16 mph ()    
Max Wind Speed 22 mph    
Max Gust Speed 36 mph    
Visibility 7.2 miles    
Events Rain    
Averages and records for this station are not official NWS values.
T = Trace of Precipitation, MM = Missing Value Source: Averaged Metar Reports

Daily Weather History Graph

Daily Weather History Graph

Search for Another Location

Airport:

Trip Planner

Search our weather history database for the weather conditions in past years. The results will help you decide how hot, cold, wet, or windy it might be!

Date:

Astronomy

Aug. 30, 2014 Rise Set
Actual Time 6:30 AM IST 8:19 PM IST
Civil Twilight 5:53 AM IST 8:56 PM IST
Nautical Twilight 5:07 AM IST 9:42 PM IST
Astronomical Twilight 4:15 AM IST 10:34 PM IST
Moon 11:48 AM IST (8/30) 9:58 PM IST (8/30)
Length of Visible Light 15h 02m
Length of Day
13h 49m
Waxing Crescent, 21% of the Moon is Illuminated
Aug 30
Waxing Crescent
Sep 2
First Quarter
Sep 9
Full
Sep 16
Last Quarter
Sep 24
New

Hourly Weather History & Observations

Time (IST) Temp. Dew Point Humidity Pressure Visibility Wind Dir Wind Speed Gust Speed Precip Events Conditions
12:00 AM 55 °F 52 °F 85% 29.82 in 12 mi WSW 20.1 mph - -   Mostly Cloudy
12:00 AM 55.4 °F 51.8 °F 88% 29.80 in 6.2 mi WSW 18.4 mph - N/A   Mostly Cloudy
12:30 AM 55.4 °F 51.8 °F 88% 29.80 in 6.2 mi West 19.6 mph - N/A   Mostly Cloudy
1:00 AM 55 °F 53 °F 88% 29.83 in 9 mi West 17.9 mph - - Rain Light Drizzle
1:00 AM 55.4 °F 51.8 °F 88% 29.83 in 6.2 mi West 18.4 mph - N/A   Light Drizzle
1:30 AM 55.4 °F 51.8 °F 88% 29.83 in 6.2 mi West 18.4 mph - N/A   Mostly Cloudy
2:00 AM 55 °F 53 °F 88% 29.85 in 12 mi West 17.9 mph - -   Overcast
2:00 AM 55.4 °F 51.8 °F 88% 29.83 in 6.2 mi West 18.4 mph - N/A   Mostly Cloudy
2:30 AM 55.4 °F 53.6 °F 94% 29.83 in 6.2 mi West 17.3 mph - N/A Rain Light Rain
3:00 AM 55 °F 53 °F 91% 29.87 in 12 mi West 15.7 mph - - Rain Light Rain
3:00 AM 55.4 °F 53.6 °F 94% 29.86 in 6.2 mi West 17.3 mph - N/A   Mostly Cloudy
3:30 AM 55.4 °F 53.6 °F 94% 29.86 in 6.2 mi West 15.0 mph - N/A   Mostly Cloudy
4:00 AM 54 °F 53 °F 93% 29.87 in 12 mi West 13.4 mph - -   Partly Cloudy
4:00 AM 55.4 °F 51.8 °F 88% 29.86 in 6.2 mi West 13.8 mph - N/A   Mostly Cloudy
4:30 AM 55.4 °F 53.6 °F 94% 29.86 in 6.2 mi West 17.3 mph - N/A   Mostly Cloudy
5:00 AM 55 °F 54 °F 94% 29.88 in 9 mi West 15.7 mph - - Rain Light Drizzle
5:00 AM 55.4 °F 53.6 °F 94% 29.86 in 6.2 mi West 16.1 mph - N/A   Light Drizzle
5:30 AM 55.4 °F 53.6 °F 94% 29.89 in 4.3 mi West 13.8 mph - N/A   Light Drizzle
6:00 AM 54 °F 54 °F 99% 29.90 in 4 mi West 13.4 mph - - Rain Light Drizzle
6:00 AM 55.4 °F 53.6 °F 94% 29.89 in 3.7 mi West 13.8 mph - N/A   Light Drizzle
6:30 AM 55.4 °F 53.6 °F 94% 29.89 in 1.9 mi West 15.0 mph - N/A   Light Drizzle
7:00 AM 55 °F 54 °F 95% 29.91 in 12 mi West 15.7 mph - - Rain Light Drizzle
7:00 AM 55.4 °F 53.6 °F 94% 29.89 in 6.2 mi West 16.1 mph - N/A   Mostly Cloudy
7:30 AM 55.4 °F 53.6 °F 94% 29.92 in 6.2 mi West 15.0 mph - N/A   Mostly Cloudy
8:00 AM 55 °F 54 °F 95% 29.93 in 12 mi West 15.7 mph - -   Mostly Cloudy
8:00 AM 55.4 °F 53.6 °F 94% 29.92 in 6.2 mi West 15.0 mph - N/A   Mostly Cloudy
8:30 AM 55.4 °F 53.6 °F 94% 29.92 in 6.2 mi West 16.1 mph - N/A   Mostly Cloudy
9:00 AM 57 °F 55 °F 89% 29.94 in 12 mi West 15.7 mph - -   Scattered Clouds
9:00 AM 57.2 °F 55.4 °F 94% 29.92 in 6.2 mi West 15.0 mph - N/A   Mostly Cloudy
9:30 AM 57.2 °F 55.4 °F 94% 29.92 in 6.2 mi West 18.4 mph - N/A   Mostly Cloudy
10:00 AM 57 °F 55 °F 92% 29.96 in 3 mi West 15.7 mph - - Rain Light Rain
10:00 AM 57.2 °F 55.4 °F 94% 29.95 in 3.1 mi West 17.3 mph - N/A Rain Light Rain
10:30 AM 57.2 °F 55.4 °F 94% 29.95 in 6.2 mi West 16.1 mph - N/A   Light Drizzle
11:00 AM 58 °F 56 °F 90% 29.97 in 11 mi West 17.9 mph - - Rain Light Rain
11:00 AM 59.0 °F 55.4 °F 88% 29.95 in 6.2 mi West 17.3 mph - N/A   Mostly Cloudy
11:30 AM 59.0 °F 55.4 °F 88% 29.98 in 6.2 mi West 16.1 mph - N/A   Mostly Cloudy
12:00 PM 60 °F 55 °F 78% 29.98 in 12 mi West 15.7 mph - -   Overcast
12:00 PM 59.0 °F 55.4 °F 88% 29.98 in 6.2 mi West 16.1 mph - N/A   Mostly Cloudy
12:30 PM 60.8 °F 55.4 °F 82% 29.98 in 6.2 mi West 18.4 mph - N/A   Mostly Cloudy
1:00 PM 63 °F 55 °F 69% 29.98 in 12 mi West 22.4 mph - - Rain Light Drizzle
1:00 PM 62.6 °F 53.6 °F 72% 29.98 in 6.2 mi West 21.9 mph - N/A   Mostly Cloudy
1:30 PM 59.0 °F 53.6 °F 82% 29.98 in 6.2 mi WNW 21.9 mph 35.7 mph N/A   Mostly Cloudy
2:00 PM 62 °F 54 °F 66% 29.99 in 22 mi WNW 20.1 mph - -   Mostly Cloudy
2:00 PM 62.6 °F 55.4 °F 77% 29.98 in 6.2 mi WNW 20.7 mph - N/A   Mostly Cloudy
2:30 PM 62.6 °F 55.4 °F 77% 29.98 in 6.2 mi WNW 20.7 mph - N/A   Mostly Cloudy
3:00 PM 62 °F 52 °F 61% 29.99 in 25 mi WNW 17.9 mph - -   Mostly Cloudy
3:00 PM 62.6 °F 51.8 °F 68% 29.98 in 6.2 mi WNW 18.4 mph - N/A   Mostly Cloudy
3:30 PM 62.6 °F 51.8 °F 68% 29.98 in 6.2 mi West 18.4 mph 29.9 mph N/A   Mostly Cloudy
4:00 PM 61 °F 51 °F 61% 30.00 in 25 mi West 15.7 mph - -   Mostly Cloudy
4:00 PM 60.8 °F 51.8 °F 72% 29.98 in 6.2 mi West 17.3 mph - N/A   Mostly Cloudy
4:30 PM 62.6 °F 51.8 °F 68% 29.98 in 6.2 mi WNW 15.0 mph - N/A   Mostly Cloudy
5:00 PM 61 °F 49 °F 56% 30.00 in 25 mi West 17.9 mph - -   Partly Cloudy
5:00 PM 60.8 °F 50.0 °F 68% 29.98 in 6.2 mi West 17.3 mph - N/A   Mostly Cloudy
5:30 PM 60.8 °F 50.0 °F 68% 30.01 in 6.2 mi West 16.1 mph - N/A   Mostly Cloudy
6:00 PM 61 °F 51 °F 62% 30.01 in 25 mi West 13.4 mph - -   Partly Cloudy
6:00 PM 60.8 °F 50.0 °F 68% 30.01 in 6.2 mi West 13.8 mph - N/A   Mostly Cloudy
6:30 PM 60.8 °F 51.8 °F 72% 30.01 in 6.2 mi West 19.6 mph - N/A   Mostly Cloudy
7:00 PM 59 °F 51 °F 69% 30.02 in 31 mi West 15.7 mph - -   Partly Cloudy
7:00 PM 59.0 °F 51.8 °F 77% 30.01 in 6.2 mi West 16.1 mph - N/A   Scattered Clouds
7:30 PM 59.0 °F 50.0 °F 72% 30.01 in 6.2 mi WNW 16.1 mph - N/A   Scattered Clouds
8:00 PM 57 °F 51 °F 75% 30.04 in 31 mi West 11.2 mph - -   Partly Cloudy
8:00 PM 57.2 °F 51.8 °F 82% 30.04 in 6.2 mi West 11.5 mph - N/A   Mostly Cloudy
8:30 PM 57.2 °F 51.8 °F 82% 30.04 in 6.2 mi West 12.7 mph - N/A   Mostly Cloudy
9:00 PM 55 °F 51 °F 81% 30.06 in 28 mi West 11.2 mph - -   Scattered Clouds
9:00 PM 55.4 °F 51.8 °F 88% 30.04 in 6.2 mi West 12.7 mph - N/A   Mostly Cloudy
9:30 PM 55.4 °F 51.8 °F 88% 30.06 in 6.2 mi West 12.7 mph - N/A   Mostly Cloudy
10:00 PM 54 °F 51 °F 84% 30.07 in 16 mi West 11.2 mph - -   Scattered Clouds
10:00 PM 53.6 °F 50.0 °F 88% 30.06 in 6.2 mi West 11.5 mph - N/A   Mostly Cloudy
10:30 PM 53.6 °F 50.0 °F 88% 30.06 in 6.2 mi West 11.5 mph - N/A   Mostly Cloudy
11:00 PM 53 °F 50 °F 85% 30.09 in 16 mi West 11.2 mph - -   Scattered Clouds
11:00 PM 53.6 °F 50.0 °F 88% 30.06 in 6.2 mi West 10.4 mph - N/A   Mostly Cloudy
11:30 PM 51.8 °F 50.0 °F 94% 30.06 in 6.2 mi West 10.4 mph - N/A   Scattered Clouds